| time (UTC) | temp F | wind direction | speed knots | gust knots | rain 1hr in | rain 24hr in | rain mn in | humidity % | barometer mb |
| 20260502223025 | 66 | 270 | 0.0 | 7.8 | 0.00 | 0.00 | 0.00 | 32 | 1002.9 |
| 20260502221522 | 66 | 255 | 0.9 | 11.3 | 0.00 | 0.00 | 0.00 | 31 | 1003.0 |
| 20260502220027 | 66 | 259 | 1.7 | 8.7 | 0.00 | 0.00 | 0.00 | 31 | 1003.3 |
| 20260502214519 | 67 | 242 | 3.5 | 9.6 | 0.00 | 0.00 | 0.00 | 29 | 1003.5 |
| 20260502213017 | 67 | 240 | 5.2 | 9.6 | 0.00 | 0.00 | 0.00 | 28 | 1003.8 |
| 20260502211516 | 67 | 300 | 1.7 | 10.4 | 0.00 | 0.00 | 0.00 | 30 | 1003.9 |
| 20260502210011 | 67 | 218 | 5.2 | 11.3 | 0.00 | 0.00 | 0.00 | 30 | 1004.3 |
| 20260502204508 | 66 | 233 | 4.3 | 9.6 | 0.00 | 0.00 | 0.00 | 30 | 1004.5 |
| 20260502203004 | 64 | 256 | 4.3 | 10.4 | 0.00 | 0.00 | 0.00 | 31 | 1004.9 |
| 20260502201600 | 63 | 311 | 0.9 | 13.0 | 0.00 | 0.00 | 0.00 | 33 | 1005.2 |
| 20260502200130 | 63 | 208 | 3.5 | 11.3 | 0.00 | 0.00 | 0.00 | 33 | 1005.6 |
| 20260502194608 | 63 | 302 | 3.5 | 9.6 | 0.00 | 0.00 | 0.00 | 32 | 1005.9 |
| 20260502193056 | 62 | 246 | 1.7 | 8.7 | 0.00 | 0.00 | 0.00 | 33 | 1006.2 |
| 20260502191556 | 61 | 232 | 3.5 | 10.4 | 0.00 | 0.00 | 0.00 | 33 | 1006.6 |
| 20260502190047 | 61 | 257 | 3.5 | 9.6 | 0.00 | 0.00 | 0.00 | 34 | 1006.9 |
| 20260502184545 | 60 | 244 | 3.5 | 9.6 | 0.00 | 0.00 | 0.00 | 34 | 1007.1 |
| 20260502183047 | 59 | 205 | 3.5 | 11.3 | 0.00 | 0.00 | 0.00 | 34 | 1007.4 |
| 20260502181540 | 58 | 236 | 2.6 | 9.6 | 0.00 | 0.00 | 0.00 | 34 | 1007.7 |
| 20260502163020 | 54 | 270 | 1.7 | 7.8 | 0.00 | 0.00 | 0.00 | 39 | 1009.3 |
| 20260502161514 | 54 | 310 | 2.6 | 7.0 | 0.00 | 0.00 | 0.00 | 39 | 1009.6 |
| 20260502151502 | 51 | 316 | 1.7 | 10.4 | 0.00 | 0.00 | 0.00 | 46 | 1010.2 |
| 20260502150131 | 50 | 329 | 2.6 | 6.1 | 0.00 | 0.00 | 0.00 | 49 | 1010.3 |
| 20260502123040 | 40 | 259 | 0.9 | 4.3 | 0.00 | 0.00 | 0.00 | 62 | 1010.7 |
| 20260502121539 | 40 | 259 | 0.0 | 5.2 | 0.00 | 0.00 | 0.00 | 62 | 1010.7 |
| 20260502114539 | 39 | 259 | 0.0 | 5.2 | 0.00 | 0.00 | 0.00 | 60 | 1010.5 |
| 20260502113046 | 39 | 259 | 0.0 | 1.7 | 0.00 | 0.00 | 0.00 | 60 | 1010.5 |
| 20260502111537 | 39 | 259 | 0.9 | 5.2 | 0.00 | 0.00 | 0.00 | 60 | 1010.4 |
| 20260502110036 | 39 | 259 | 1.7 | 5.2 | 0.00 | 0.00 | 0.00 | 60 | 1010.4 |
| 20260502104532 | 39 | 259 | 0.9 | 4.3 | 0.00 | 0.00 | 0.00 | 59 | 1010.4 |
| 20260502103056 | 40 | 259 | 2.6 | 6.1 | 0.00 | 0.00 | 0.00 | 58 | 1010.3 |
| 20260502101544 | 40 | 259 | 0.9 | 5.2 | 0.00 | 0.00 | 0.00 | 57 | 1010.4 |
| 20260502091520 | 42 | 260 | 0.9 | 6.1 | 0.00 | 0.00 | 0.00 | 53 | 1010.2 |
| 20260502070103 | 43 | 288 | 0.0 | 5.2 | 0.00 | 0.00 | 0.00 | 50 | 1010.5 |
| 20260502064557 | 43 | 288 | 0.9 | 4.3 | 0.00 | 0.00 | 0.00 | 49 | 1010.7 |
| 20260502063117 | 43 | 288 | 1.7 | 6.1 | 0.00 | 0.00 | 0.00 | 49 | 1010.6 |
| 20260502061554 | 44 | 288 | 0.9 | 4.3 | 0.00 | 0.00 | 0.00 | 48 | 1010.7 |
| 20260502060053 | 44 | 288 | 0.9 | 4.3 | 0.00 | 0.00 | 0.00 | 47 | 1010.8 |
| 20260502054604 | 44 | 288 | 0.9 | 4.3 | 0.00 | 0.00 | 0.00 | 46 | 1010.7 |
| 20260502053050 | 44 | 288 | 0.0 | 4.3 | 0.00 | 0.00 | 0.00 | 46 | 1010.7 |
| 20260502051548 | 45 | 288 | 0.0 | 4.3 | 0.00 | 0.00 | 0.00 | 45 | 1010.7 |
| 20260502050044 | 45 | 288 | 0.9 | 5.2 | 0.00 | 0.00 | 0.00 | 44 | 1010.7 |
| 20260502044544 | 45 | 288 | 1.7 | 4.3 | 0.00 | 0.00 | 0.00 | 44 | 1010.6 |
| 20260502043053 | 45 | 288 | 2.6 | 6.1 | 0.00 | 0.00 | 0.00 | 44 | 1010.6 |
| 20260502041543 | 46 | 288 | 0.9 | 4.3 | 0.00 | 0.00 | 0.00 | 44 | 1010.6 |
| 20260502040050 | 46 | 288 | 0.0 | 4.3 | 0.00 | 0.00 | 0.00 | 42 | 1010.6 |
| 20260502034542 | 46 | 288 | 0.9 | 4.3 | 0.00 | 0.00 | 0.00 | 42 | 1010.6 |
| 20260502033043 | 47 | 288 | 0.9 | 5.2 | 0.00 | 0.00 | 0.00 | 41 | 1010.7 |
| 20260502031540 | 47 | 288 | 1.7 | 4.3 | 0.00 | 0.00 | 0.00 | 40 | 1010.7 |
| 20260502030044 | 47 | 288 | 1.7 | 5.2 | 0.00 | 0.00 | 0.00 | 39 | 1010.7 |
| 20260502024540 | 48 | 288 | 3.5 | 6.1 | 0.00 | 0.00 | 0.00 | 37 | 1010.6 |
| 20260502023040 | 48 | 290 | 2.6 | 6.1 | 0.00 | 0.00 | 0.00 | 37 | 1010.6 |
| 20260502021539 | 48 | 292 | 2.6 | 5.2 | 0.00 | 0.00 | 0.00 | 36 | 1010.5 |
| 20260502020039 | 48 | 293 | 1.7 | 4.3 | 0.00 | 0.00 | 0.00 | 37 | 1010.4 |
| 20260502014539 | 49 | 296 | 1.7 | 4.3 | 0.00 | 0.00 | 0.00 | 36 | 1010.2 |
| 20260502013038 | 49 | 348 | 0.9 | 3.5 | 0.00 | 0.00 | 0.00 | 36 | 1010.1 |
| 20260502011538 | 50 | 348 | 0.9 | 4.3 | 0.00 | 0.00 | 0.00 | 36 | 1010.1 |
| 20260502010042 | 51 | 54 | 1.7 | 5.2 | 0.00 | 0.00 | 0.00 | 34 | 1010.0 |
| 20260502004537 | 52 | 54 | 0.9 | 6.1 | 0.00 | 0.00 | 0.00 | 34 | 1010.0 |
| 20260502003036 | 52 | 51 | 2.6 | 6.1 | 0.00 | 0.00 | 0.00 | 33 | 1010.0 |
| 20260502001536 | 51 | 5 | 0.9 | 4.3 | 0.00 | 0.00 | 0.00 | 35 | 1010.0 |
| 20260502000036 | 51 | 71 | 0.9 | 6.1 | 0.00 | 0.00 | 0.00 | 34 | 1009.9 |
| 20260501234537 | 52 | 54 | 1.7 | 4.3 | 0.00 | 0.00 | 0.00 | 33 | 1010.0 |
| 20260501233046 | 51 | 52 | 3.5 | 8.7 | 0.00 | 0.00 | 0.00 | 34 | 1009.9 |
| 20260501231535 | 50 | 59 | 1.7 | 4.3 | 0.00 | 0.00 | 0.00 | 34 | 1009.9 |
| 20260501230034 | 51 | 348 | 2.6 | 8.7 | 0.00 | 0.00 | 0.00 | 33 | 1010.0 |
| 20260501224532 | 51 | 309 | 6.1 | 10.4 | 0.00 | 0.00 | 0.00 | 35 | 1009.9 |